Tracking 20621 objects as of 31-Mar-2020
HD Live streaming from Space Station
objects crossing your sky now

SL-8 DEB

Track SL-8 DEB now!
10-day predictions


NORAD ID: 11752
Int'l Code: 1980-026C
Perigee: 966.7 km
Apogee: 1,010.5 km
Inclination: 65.8 °
Period: 104.7 minutes
Semi major axis: 7359 km
RCS: 0.4567 m2 (medium)
Launch date: April 3, 1980
Source: Commonwealth of Independent States (former USSR) (CIS)
Launch site: PLESETSK MISSILE AND SPACE COMPLEX (PKMTR)

Note: This is SATELLITE DEBRIS
aabbcc
Your satellite tracking list
Your tracking list is empty




NASA's NSSDC Master Catalog

Two Line Element Set (TLE):
1 11752U 80026C   20090.86358462 -.00000058 +00000-0 +23107-4 0  9996
2 11752 065.8408 254.8078 0029780 302.6513 206.0236 13.75058895007040
Source of the keplerian elements: AFSPC